QTR66Y OTHH-EGCC

Flight info

Callsign QTR66Y
Flight time 7h 14m
Altitude 34000
Route ULIKA M430 KSA T503 OVANO L768 SULAF/N0493F360 L768 FIRAS R655 KTN R785 NIKAS L619 VESAR UN135 IMR UN127 RIKSO DCT TALAS DCT MAVAR DCT ULPIN DCT MONFA DCT SOTOV/N0489F380 DCT XEBIX DCT USUDO DCT LIRSU DCT SPI DCT DENUT L610 LAM UN57 WELIN T420 ELVOS
Aircraft A35K/H-SDE2E3GHIJ1J3J4J5LM1ORWXY/LB1D1

Departure

Time 2026-05-06 11:35
Airport Hamad International Airport (OTHH)

Arrival

Time 2026-05-06 18:50
Airport Manchester Airport (EGCC)
Time Latitude Longitude Altitude Speed Heading
2026-05-06 10:21 25.26524 51.61079 28 ft 0 kts 68°
2026-05-06 11:16 25.26522 51.61074 28 ft 4 kts 68°
2026-05-06 11:16 25.26512 51.61046 48 ft 4 kts 68°
2026-05-06 11:17 25.26504 51.61022 15 ft 4 kts 61°
2026-05-06 11:17 25.26491 51.61003 25 ft 4 kts 28°
2026-05-06 11:17 25.26475 51.60997 26 ft 4 kts 351°
2026-05-06 11:17 25.26450 51.61004 26 ft 4 kts 337°
2026-05-06 11:18 25.26432 51.61013 26 ft 1 kts 338°
2026-05-06 11:18 25.26429 51.61014 26 ft 0 kts 338°
2026-05-06 11:20 25.26444 51.61007 25 ft 6 kts 338°
2026-05-06 11:20 25.26489 51.60987 25 ft 7 kts 338°
2026-05-06 11:21 25.26539 51.60965 28 ft 8 kts 338°
2026-05-06 11:21 25.26577 51.60924 28 ft 7 kts 301°
2026-05-06 11:21 25.26600 51.60870 28 ft 8 kts 295°
2026-05-06 11:21 25.26625 51.60810 28 ft 9 kts 292°
2026-05-06 11:22 25.26649 51.60745 28 ft 10 kts 293°
2026-05-06 11:22 25.26676 51.60675 28 ft 10 kts 292°
2026-05-06 11:22 25.26680 51.60600 28 ft 10 kts 257°
2026-05-06 11:22 25.26655 51.60526 28 ft 11 kts 250°
2026-05-06 11:23 25.26636 51.60474 27 ft 6 kts 246°
2026-05-06 11:23 25.26623 51.60428 27 ft 6 kts 265°
2026-05-06 11:23 25.26640 51.60387 27 ft 6 kts 316°
2026-05-06 11:23 25.26679 51.60362 27 ft 7 kts 334°
2026-05-06 11:24 25.26724 51.60339 27 ft 8 kts 336°
2026-05-06 11:24 25.26775 51.60316 27 ft 8 kts 339°
2026-05-06 11:24 25.26830 51.60292 27 ft 9 kts 338°
2026-05-06 11:24 25.26888 51.60266 27 ft 9 kts 338°
2026-05-06 11:25 25.26949 51.60239 27 ft 10 kts 338°
2026-05-06 11:25 25.27012 51.60212 27 ft 9 kts 345°
2026-05-06 11:25 25.27056 51.60234 27 ft 6 kts 46°
2026-05-06 11:25 25.27078 51.60279 27 ft 8 kts 66°
2026-05-06 11:26 25.27101 51.60338 28 ft 8 kts 67°
2026-05-06 11:26 25.27124 51.60399 28 ft 8 kts 69°
2026-05-06 11:26 25.27145 51.60461 28 ft 9 kts 69°
2026-05-06 11:26 25.27168 51.60525 28 ft 9 kts 69°
2026-05-06 11:27 25.27193 51.60594 28 ft 12 kts 69°
2026-05-06 11:27 25.27230 51.60698 28 ft 17 kts 67°
2026-05-06 11:27 25.27280 51.60829 28 ft 19 kts 67°
2026-05-06 11:27 25.27329 51.60962 28 ft 19 kts 69°
2026-05-06 11:28 25.27375 51.61096 28 ft 19 kts 69°
2026-05-06 11:28 25.27423 51.61229 28 ft 18 kts 68°
2026-05-06 11:28 25.27470 51.61358 28 ft 18 kts 68°
2026-05-06 11:28 25.27518 51.61490 28 ft 18 kts 68°
2026-05-06 11:29 25.27546 51.61584 28 ft 11 kts 92°
2026-05-06 11:29 25.27494 51.61632 28 ft 12 kts 159°
2026-05-06 11:29 25.27394 51.61676 28 ft 19 kts 158°
2026-05-06 11:29 25.27253 51.61738 28 ft 23 kts 158°
2026-05-06 11:30 25.27105 51.61803 28 ft 23 kts 158°
2026-05-06 11:30 25.26956 51.61868 27 ft 23 kts 159°
2026-05-06 11:30 25.26808 51.61933 27 ft 23 kts 158°
2026-05-06 11:30 25.26660 51.61999 27 ft 23 kts 158°
2026-05-06 11:31 25.26512 51.62065 28 ft 23 kts 158°
2026-05-06 11:31 25.26368 51.62128 28 ft 22 kts 158°
2026-05-06 11:31 25.26223 51.62192 29 ft 22 kts 158°
2026-05-06 11:31 25.26080 51.62255 29 ft 22 kts 158°
2026-05-06 11:32 25.25937 51.62318 29 ft 22 kts 158°
2026-05-06 11:32 25.25792 51.62382 28 ft 22 kts 158°
2026-05-06 11:32 25.25653 51.62443 28 ft 16 kts 158°
2026-05-06 11:32 25.25563 51.62482 28 ft 13 kts 158°
2026-05-06 11:33 25.25509 51.62518 28 ft 7 kts 120°
2026-05-06 11:33 25.25513 51.62568 28 ft 7 kts 68°
2026-05-06 11:33 25.25538 51.62613 28 ft 7 kts 58°
2026-05-06 11:33 25.25561 51.62658 29 ft 7 kts 57°
2026-05-06 11:34 25.25593 51.62671 29 ft 5 kts 356°
2026-05-06 11:34 25.25612 51.62664 29 ft 0 kts 339°
2026-05-06 11:34 25.25618 51.62661 29 ft 4 kts 339°
2026-05-06 11:35 25.25798 51.62585 28 ft 62 kts 339°
2026-05-06 11:35 25.26416 51.62312 29 ft 128 kts 339°
2026-05-06 11:35 25.27435 51.61877 97 ft 178 kts 342°
2026-05-06 11:35 25.28545 51.61409 909 ft 168 kts 341°
2026-05-06 11:36 25.29630 51.60946 1487 ft 170 kts 341°
2026-05-06 11:36 25.30764 51.60447 1713 ft 180 kts 339°
2026-05-06 11:36 25.31964 51.59900 1920 ft 192 kts 339°
2026-05-06 11:36 25.33252 51.59330 2096 ft 206 kts 341°
2026-05-06 11:37 25.34712 51.59341 2220 ft 219 kts 18°
2026-05-06 11:37 25.36200 51.59949 2369 ft 237 kts 21°
2026-05-06 11:37 25.37796 51.60569 2612 ft 252 kts 17°
2026-05-06 11:37 25.39500 51.61168 2994 ft 260 kts 21°
2026-05-06 11:38 25.40995 51.62301 3486 ft 264 kts 48°
2026-05-06 11:38 25.41898 51.64080 3933 ft 268 kts 70°
2026-05-06 11:38 25.42148 51.66137 4417 ft 275 kts 95°
2026-05-06 11:38 25.41546 51.68114 4943 ft 279 kts 121°
2026-05-06 11:39 25.40188 51.69645 5449 ft 283 kts 147°
2026-05-06 11:39 25.38410 51.70611 5972 ft 286 kts 157°
2026-05-06 11:39 25.36535 51.71409 6465 ft 289 kts 158°
2026-05-06 11:39 25.34643 51.72187 6938 ft 291 kts 159°
2026-05-06 11:40 25.32731 51.72974 7436 ft 294 kts 159°
2026-05-06 11:40 25.30831 51.73760 7938 ft 297 kts 159°
2026-05-06 11:40 25.28815 51.74304 8457 ft 300 kts 174°
2026-05-06 11:40 25.26736 51.74114 8973 ft 301 kts 198°
2026-05-06 11:41 25.24922 51.72992 9499 ft 301 kts 225°
2026-05-06 11:41 25.23733 51.71115 10044 ft 299 kts 245°
2026-05-06 11:41 25.22808 51.69018 10391 ft 310 kts 246°
2026-05-06 11:41 25.21867 51.66819 10671 ft 322 kts 246°
2026-05-06 11:42 25.20879 51.64545 10946 ft 335 kts 246°
2026-05-06 11:42 25.19857 51.62219 11209 ft 346 kts 245°
2026-05-06 11:42 25.18780 51.59787 11450 ft 358 kts 245°
2026-05-06 11:42 25.17662 51.57270 11659 ft 371 kts 245°
2026-05-06 11:43 25.16508 51.54677 11883 ft 381 kts 245°
2026-05-06 11:43 25.15323 51.52022 12271 ft 386 kts 245°
2026-05-06 11:43 25.14149 51.49395 12716 ft 388 kts 245°
2026-05-06 11:44 25.11742 51.44010 13672 ft 392 kts 245°
2026-05-06 11:44 25.10529 51.41300 14094 ft 394 kts 245°
2026-05-06 11:44 25.09312 51.38580 14544 ft 396 kts 245°
2026-05-06 11:44 25.08087 51.35845 14979 ft 398 kts 245°
2026-05-06 11:45 25.07020 51.33021 15407 ft 399 kts 253°
2026-05-06 11:45 25.06260 51.30074 15833 ft 401 kts 256°
2026-05-06 11:45 25.05565 51.27128 16239 ft 403 kts 256°
2026-05-06 11:45 25.04856 51.24117 16659 ft 405 kts 256°
2026-05-06 11:46 25.04141 51.21104 17077 ft 407 kts 256°
2026-05-06 11:46 25.03419 51.18075 17490 ft 410 kts 255°
2026-05-06 11:46 25.02690 51.15019 17898 ft 412 kts 256°
2026-05-06 11:46 25.02182 51.11905 18255 ft 415 kts 266°
2026-05-06 11:47 25.02084 51.08720 18620 ft 416 kts 269°
2026-05-06 11:47 25.02072 51.05520 18991 ft 418 kts 270°
2026-05-06 11:47 25.02064 51.02303 19365 ft 420 kts 269°
2026-05-06 11:47 25.02050 50.99079 19736 ft 422 kts 269°
2026-05-06 11:48 25.02034 50.95842 20126 ft 423 kts 269°
2026-05-06 11:48 25.02242 50.92594 20482 ft 426 kts 280°
2026-05-06 11:48 25.03206 50.89506 20848 ft 429 kts 297°
2026-05-06 11:48 25.04976 50.86841 21227 ft 433 kts 312°
2026-05-06 11:49 25.07143 50.84514 21607 ft 436 kts 315°
2026-05-06 11:49 25.09375 50.82232 21977 ft 439 kts 315°
2026-05-06 11:49 25.11612 50.79937 22352 ft 441 kts 315°
2026-05-06 11:49 25.13856 50.77621 22732 ft 443 kts 315°
2026-05-06 11:50 25.16083 50.75310 23112 ft 445 kts 314°
2026-05-06 11:50 25.18344 50.72958 23474 ft 447 kts 314°
2026-05-06 11:50 25.20606 50.70599 23767 ft 448 kts 314°
2026-05-06 11:50 25.22748 50.68095 24067 ft 448 kts 306°
2026-05-06 11:51 25.24454 50.65226 24377 ft 446 kts 295°
2026-05-06 11:51 25.25591 50.62053 24710 ft 444 kts 283°
2026-05-06 11:51 25.26124 50.58702 25066 ft 443 kts 272°
2026-05-06 11:51 25.26254 50.55298 25443 ft 443 kts 269°
2026-05-06 11:52 25.26235 50.51891 25820 ft 444 kts 267°
2026-05-06 11:52 25.26171 50.48474 26213 ft 446 kts 268°
2026-05-06 11:52 25.26170 50.45043 26592 ft 448 kts 269°
2026-05-06 11:52 25.26219 50.41593 26977 ft 449 kts 269°
2026-05-06 11:53 25.26292 50.38173 27340 ft 451 kts 269°
2026-05-06 11:53 25.26377 50.34657 27706 ft 453 kts 269°
2026-05-06 11:53 25.26460 50.31221 28071 ft 454 kts 269°
2026-05-06 11:53 25.26540 50.27717 28432 ft 456 kts 269°
2026-05-06 11:54 25.26615 50.24203 28784 ft 458 kts 269°
2026-05-06 11:54 25.26686 50.20682 29128 ft 459 kts 269°
2026-05-06 11:54 25.26755 50.17156 29446 ft 461 kts 269°
2026-05-06 11:54 25.26823 50.13606 29763 ft 462 kts 269°
2026-05-06 11:55 25.26890 50.10041 30043 ft 464 kts 269°
2026-05-06 11:55 25.26955 50.06513 30281 ft 465 kts 269°
2026-05-06 11:55 25.27021 50.02896 30595 ft 465 kts 269°
2026-05-06 11:55 25.27086 49.99382 30974 ft 462 kts 269°
2026-05-06 11:56 25.27150 49.95839 31354 ft 460 kts 269°
2026-05-06 11:56 25.27213 49.92303 31730 ft 458 kts 269°
2026-05-06 11:56 25.27275 49.88791 32084 ft 457 kts 269°
2026-05-06 11:56 25.27335 49.85287 32431 ft 455 kts 269°
2026-05-06 11:57 25.27394 49.81795 32770 ft 454 kts 269°
2026-05-06 11:57 25.27452 49.78318 33106 ft 452 kts 269°
2026-05-06 11:57 25.27509 49.74849 33440 ft 450 kts 269°
2026-05-06 11:57 25.27565 49.71393 33740 ft 450 kts 269°
2026-05-06 11:58 25.27673 49.64475 33831 ft 456 kts 269°
2026-05-06 11:58 25.27780 49.57482 33828 ft 455 kts 269°
2026-05-06 11:59 25.27882 49.50493 33829 ft 454 kts 268°
2026-05-06 11:59 25.27484 49.43557 33830 ft 452 kts 263°
2026-05-06 12:00 25.26877 49.36635 33829 ft 452 kts 262°
2026-05-06 12:00 25.26240 49.29777 33836 ft 451 kts 262°
2026-05-06 12:01 25.25603 49.22904 33836 ft 451 kts 262°
2026-05-06 12:01 25.24969 49.16017 33841 ft 450 kts 262°
2026-05-06 12:02 25.24334 49.09131 33849 ft 449 kts 262°
2026-05-06 12:02 25.23702 49.02303 33850 ft 449 kts 262°
2026-05-06 12:03 25.23062 48.95438 33850 ft 449 kts 262°
2026-05-06 12:03 25.22418 48.88564 33853 ft 449 kts 262°
2026-05-06 12:04 25.21881 48.82862 33856 ft 449 kts 262°
2026-05-06 12:04 25.21233 48.76002 33856 ft 449 kts 262°
2026-05-06 12:05 25.20582 48.69146 33863 ft 449 kts 262°
2026-05-06 12:05 25.19927 48.62284 33868 ft 449 kts 262°
2026-05-06 12:06 25.19274 48.55432 33876 ft 449 kts 262°
2026-05-06 12:06 25.18616 48.48625 33875 ft 448 kts 262°
2026-05-06 12:07 25.17950 48.41780 33882 ft 448 kts 262°
2026-05-06 12:07 25.17283 48.34941 33884 ft 448 kts 262°
2026-05-06 12:08 25.16615 48.28101 33887 ft 447 kts 262°
2026-05-06 12:08 25.15944 48.21274 33896 ft 447 kts 262°
2026-05-06 12:09 25.15271 48.14455 33896 ft 447 kts 261°
2026-05-06 12:09 25.14599 48.07682 33901 ft 446 kts 261°
2026-05-06 12:10 25.13917 48.00862 33905 ft 446 kts 261°
2026-05-06 12:10 25.13234 47.94049 33907 ft 446 kts 261°
2026-05-06 12:11 25.12547 47.87240 33917 ft 446 kts 261°
2026-05-06 12:11 25.11854 47.80432 33919 ft 446 kts 261°
2026-05-06 12:12 25.11062 47.73642 33921 ft 446 kts 260°
2026-05-06 12:12 25.10238 47.66910 33928 ft 446 kts 260°
2026-05-06 12:13 25.09419 47.60122 33922 ft 446 kts 260°
2026-05-06 12:13 25.08608 47.53338 33932 ft 446 kts 260°
2026-05-06 12:14 25.07797 47.46539 33933 ft 446 kts 260°
2026-05-06 12:14 25.06986 47.39752 33938 ft 446 kts 260°
2026-05-06 12:15 25.06173 47.33001 33943 ft 446 kts 259°
2026-05-06 12:15 25.05349 47.26213 33943 ft 446 kts 259°
2026-05-06 12:16 25.04520 47.19406 33940 ft 446 kts 259°
2026-05-06 12:16 25.03692 47.12614 33951 ft 446 kts 259°
2026-05-06 12:17 25.02862 47.05828 33950 ft 446 kts 259°
2026-05-06 12:17 25.02033 46.99086 33947 ft 447 kts 259°
2026-05-06 12:18 25.01195 46.92291 33945 ft 446 kts 259°
2026-05-06 12:18 25.00354 46.85504 33943 ft 446 kts 259°
2026-05-06 12:19 24.99524 46.78723 33935 ft 446 kts 261°
2026-05-06 12:19 24.99618 46.71848 33942 ft 454 kts 275°
2026-05-06 12:20 25.01554 46.65161 33939 ft 467 kts 291°
2026-05-06 12:20 25.05406 46.59335 33949 ft 483 kts 308°
2026-05-06 12:21 25.10334 46.54166 33948 ft 487 kts 310°
2026-05-06 12:21 25.15331 46.49164 33954 ft 487 kts 310°
2026-05-06 12:22 25.20336 46.44113 33962 ft 487 kts 310°
2026-05-06 12:22 25.25315 46.39029 33965 ft 487 kts 309°
2026-05-06 12:23 25.30277 46.33936 33961 ft 487 kts 309°
2026-05-06 12:23 25.35235 46.28840 33962 ft 487 kts 309°
2026-05-06 12:24 25.40160 46.23773 33964 ft 487 kts 309°
2026-05-06 12:24 25.45121 46.18666 33965 ft 487 kts 309°
2026-05-06 12:25 25.50090 46.13544 33970 ft 487 kts 309°
2026-05-06 12:25 25.55063 46.08413 33955 ft 488 kts 309°
2026-05-06 12:26 25.60023 46.03288 33956 ft 488 kts 309°
2026-05-06 12:26 25.64986 45.98160 33965 ft 488 kts 309°
2026-05-06 12:27 25.69919 45.93051 33961 ft 488 kts 308°
2026-05-06 12:27 25.74890 45.87891 33961 ft 488 kts 308°
2026-05-06 12:28 25.79852 45.82737 33966 ft 489 kts 308°
2026-05-06 12:28 25.84817 45.77577 33968 ft 489 kts 308°
2026-05-06 12:29 25.89782 45.72416 33967 ft 489 kts 308°
2026-05-06 12:29 25.94747 45.67240 33967 ft 489 kts 308°
2026-05-06 12:30 25.99672 45.62096 33972 ft 489 kts 308°
2026-05-06 12:30 26.04632 45.56911 33973 ft 488 kts 308°
2026-05-06 12:31 26.09582 45.51733 33972 ft 488 kts 308°
2026-05-06 12:31 26.14521 45.46561 33973 ft 488 kts 308°
2026-05-06 12:32 26.19464 45.41379 33978 ft 487 kts 308°
2026-05-06 12:32 26.24398 45.36200 33966 ft 487 kts 308°
2026-05-06 12:33 26.29330 45.31018 33967 ft 487 kts 308°
2026-05-06 12:33 26.34235 45.25871 33971 ft 487 kts 308°
2026-05-06 12:34 26.39177 45.20688 33975 ft 487 kts 308°
2026-05-06 12:34 26.44114 45.15504 33973 ft 487 kts 308°
2026-05-06 12:35 26.49049 45.10314 33973 ft 487 kts 307°
2026-05-06 12:35 26.53978 45.05125 33975 ft 487 kts 307°
2026-05-06 12:36 26.58909 44.99927 33972 ft 487 kts 307°
2026-05-06 12:36 26.63809 44.94765 33970 ft 487 kts 307°
2026-05-06 12:37 26.68731 44.89564 33966 ft 487 kts 307°
2026-05-06 12:37 26.73656 44.84353 33961 ft 487 kts 307°
2026-05-06 12:38 26.78583 44.79138 33962 ft 487 kts 307°
2026-05-06 12:38 26.83504 44.73915 33959 ft 487 kts 307°
2026-05-06 12:39 26.88419 44.68681 33964 ft 487 kts 307°
2026-05-06 12:39 26.93326 44.63453 33962 ft 487 kts 307°
2026-05-06 12:40 26.98201 44.58255 33961 ft 486 kts 307°
2026-05-06 12:40 27.03104 44.53027 33962 ft 486 kts 307°
2026-05-06 12:41 27.07997 44.47784 33965 ft 486 kts 307°
2026-05-06 12:41 27.12880 44.42544 33961 ft 486 kts 307°
2026-05-06 12:42 27.17762 44.37304 33966 ft 485 kts 307°
2026-05-06 12:42 27.22650 44.32068 33965 ft 485 kts 307°
2026-05-06 12:43 27.27530 44.26828 33967 ft 485 kts 307°
2026-05-06 12:43 27.32374 44.21619 33973 ft 485 kts 307°
2026-05-06 12:44 27.37249 44.16371 33974 ft 485 kts 307°
2026-05-06 12:44 27.42126 44.11113 33973 ft 485 kts 307°
2026-05-06 12:45 27.46999 44.05854 33962 ft 485 kts 307°
2026-05-06 12:46 27.54282 43.97982 33978 ft 485 kts 307°
2026-05-06 12:46 27.59155 43.92706 33976 ft 485 kts 307°
2026-05-06 12:47 27.64021 43.87431 33980 ft 485 kts 307°
2026-05-06 12:47 27.68886 43.82151 33983 ft 485 kts 307°
2026-05-06 12:48 27.73753 43.76861 33983 ft 485 kts 306°
2026-05-06 12:48 27.78586 43.71599 33984 ft 485 kts 306°
2026-05-06 12:49 27.83441 43.66308 33985 ft 485 kts 306°
2026-05-06 12:49 27.88202 43.60946 33985 ft 481 kts 304°
2026-05-06 12:50 27.92734 43.55396 33986 ft 479 kts 303°
2026-05-06 12:50 27.97222 43.49867 33987 ft 480 kts 303°
2026-05-06 12:51 28.01798 43.44301 33995 ft 480 kts 304°
2026-05-06 12:51 28.06339 43.38812 33994 ft 480 kts 304°
2026-05-06 12:52 28.10909 43.33286 33988 ft 480 kts 304°
2026-05-06 12:52 28.14695 43.28699 33995 ft 480 kts 304°
2026-05-06 12:53 28.19257 43.23164 33994 ft 479 kts 304°
2026-05-06 12:53 28.23806 43.17634 33999 ft 479 kts 304°
2026-05-06 12:54 28.28351 43.12104 34006 ft 479 kts 304°
2026-05-06 12:54 28.32893 43.06568 34005 ft 479 kts 304°
2026-05-06 12:55 28.37407 43.01062 34009 ft 479 kts 304°
2026-05-06 12:55 28.41940 42.95524 34018 ft 478 kts 304°
2026-05-06 12:56 28.46471 42.89981 34015 ft 478 kts 304°
2026-05-06 12:56 28.50999 42.84434 34018 ft 478 kts 304°
2026-05-06 12:57 28.55518 42.78890 34017 ft 478 kts 304°
2026-05-06 12:57 28.60034 42.73341 34020 ft 477 kts 304°
2026-05-06 12:58 28.64513 42.67832 34022 ft 477 kts 303°
2026-05-06 12:58 28.69049 42.62247 34023 ft 477 kts 303°
2026-05-06 12:59 28.73519 42.56732 34028 ft 476 kts 303°
2026-05-06 12:59 28.78009 42.51183 34028 ft 476 kts 303°
2026-05-06 13:00 28.82493 42.45635 34031 ft 476 kts 303°
2026-05-06 13:00 28.86973 42.40086 34035 ft 475 kts 303°
2026-05-06 13:01 28.91452 42.34530 34100 ft 474 kts 303°
2026-05-06 13:01 28.93680 42.31768 34448 ft 471 kts 303°
2026-05-06 13:01 28.95892 42.29026 34838 ft 467 kts 303°
2026-05-06 13:01 28.98090 42.26296 35151 ft 465 kts 303°
2026-05-06 13:02 29.00273 42.23579 35414 ft 464 kts 303°
2026-05-06 13:02 29.02453 42.20862 35667 ft 464 kts 302°
2026-05-06 13:02 29.04631 42.18146 35875 ft 463 kts 302°
2026-05-06 13:02 29.06816 42.15423 36033 ft 465 kts 302°
2026-05-06 13:03 29.09013 42.12675 36045 ft 469 kts 302°
2026-05-06 13:03 29.13426 42.07153 36050 ft 470 kts 302°
2026-05-06 13:04 29.17808 42.01674 36048 ft 469 kts 303°
2026-05-06 13:04 29.22222 41.96148 36056 ft 469 kts 303°
2026-05-06 13:05 29.26625 41.90625 36049 ft 469 kts 303°
2026-05-06 13:05 29.31024 41.85101 36055 ft 469 kts 303°
2026-05-06 13:06 29.35428 41.79562 36058 ft 469 kts 303°
2026-05-06 13:06 29.39798 41.74058 36066 ft 470 kts 303°
2026-05-06 13:07 29.44205 41.68500 36064 ft 470 kts 303°
2026-05-06 13:07 29.48597 41.62953 36068 ft 470 kts 303°
2026-05-06 13:08 29.52991 41.57396 36070 ft 470 kts 303°
2026-05-06 13:08 29.57384 41.51832 36072 ft 470 kts 303°
2026-05-06 13:09 29.61744 41.46304 36075 ft 469 kts 303°
2026-05-06 13:09 29.66128 41.40737 36077 ft 469 kts 303°
2026-05-06 13:10 29.70507 41.35168 36081 ft 469 kts 303°
2026-05-06 13:10 29.75059 41.29731 36086 ft 476 kts 308°
2026-05-06 13:11 29.79975 41.24593 36080 ft 477 kts 309°
2026-05-06 13:11 29.84918 41.19532 36082 ft 477 kts 309°
2026-05-06 13:12 29.89889 41.14444 36085 ft 477 kts 309°
2026-05-06 13:12 29.94851 41.09345 36072 ft 477 kts 309°
2026-05-06 13:13 29.99799 41.04245 36083 ft 477 kts 309°
2026-05-06 13:13 30.04717 40.99168 36079 ft 477 kts 309°
2026-05-06 13:14 30.09669 40.94048 36079 ft 477 kts 309°
2026-05-06 13:14 30.14612 40.88931 36077 ft 477 kts 309°
2026-05-06 13:15 30.19556 40.83807 36075 ft 477 kts 309°
2026-05-06 13:15 30.24461 40.78715 36075 ft 476 kts 309°
2026-05-06 13:16 30.29400 40.73581 36075 ft 476 kts 309°
2026-05-06 13:16 30.34336 40.68443 36074 ft 476 kts 309°
2026-05-06 13:17 30.39240 40.63333 36071 ft 476 kts 309°
2026-05-06 13:17 30.44199 40.58231 36074 ft 477 kts 310°
2026-05-06 13:18 30.49188 40.53143 36069 ft 477 kts 310°
2026-05-06 13:18 30.54162 40.48055 36067 ft 477 kts 310°
2026-05-06 13:19 30.59129 40.42956 36058 ft 477 kts 309°
2026-05-06 13:19 30.64093 40.37849 36061 ft 476 kts 309°
2026-05-06 13:20 30.69049 40.32741 36058 ft 476 kts 310°
2026-05-06 13:20 30.74006 40.27627 36055 ft 476 kts 310°
2026-05-06 13:21 30.78955 40.22513 36057 ft 476 kts 310°
2026-05-06 13:21 30.83901 40.17395 36054 ft 476 kts 310°
2026-05-06 13:22 30.88844 40.12274 36036 ft 476 kts 310°
2026-05-06 13:22 30.93784 40.07148 36050 ft 475 kts 310°
2026-05-06 13:23 30.98715 40.02024 36041 ft 475 kts 310°
2026-05-06 13:23 31.03613 39.96927 36041 ft 475 kts 310°
2026-05-06 13:24 31.08539 39.91793 36035 ft 475 kts 310°
2026-05-06 13:24 31.13461 39.86656 36036 ft 475 kts 309°
2026-05-06 13:25 31.18387 39.81506 36038 ft 474 kts 309°
2026-05-06 13:25 31.23303 39.76361 36037 ft 474 kts 309°
2026-05-06 13:26 31.28184 39.71245 36038 ft 474 kts 309°
2026-05-06 13:26 31.33089 39.66096 36034 ft 473 kts 309°
2026-05-06 13:27 31.37995 39.60938 36038 ft 473 kts 309°
2026-05-06 13:27 31.42887 39.55788 36036 ft 472 kts 309°
2026-05-06 13:28 31.47742 39.50676 36037 ft 472 kts 309°
2026-05-06 13:28 31.52616 39.45526 36031 ft 471 kts 309°
2026-05-06 13:29 31.57490 39.40368 36036 ft 471 kts 309°
2026-05-06 13:29 31.62349 39.35220 36038 ft 470 kts 309°
2026-05-06 13:30 31.67207 39.30066 36041 ft 470 kts 309°
2026-05-06 13:30 31.72060 39.24912 36039 ft 470 kts 309°
2026-05-06 13:31 31.76902 39.19761 36043 ft 470 kts 309°
2026-05-06 13:31 31.82236 39.15213 36048 ft 485 kts 322°
2026-05-06 13:32 31.88245 39.11490 36047 ft 489 kts 324°
2026-05-06 13:32 31.94356 39.07918 36046 ft 490 kts 324°
2026-05-06 13:33 32.00433 39.04371 36043 ft 489 kts 324°
2026-05-06 13:33 32.06526 39.00791 36045 ft 489 kts 324°
2026-05-06 13:34 32.12620 38.97199 36047 ft 489 kts 324°
2026-05-06 13:34 32.18702 38.93605 36045 ft 488 kts 324°
2026-05-06 13:35 32.24789 38.90004 36044 ft 488 kts 324°
2026-05-06 13:35 32.30826 38.86428 36045 ft 487 kts 324°
2026-05-06 13:36 32.36888 38.82831 36043 ft 487 kts 324°
2026-05-06 13:36 32.42936 38.79238 36043 ft 486 kts 324°
2026-05-06 13:37 32.48985 38.75639 36040 ft 485 kts 324°
2026-05-06 13:37 32.54979 38.72067 36037 ft 485 kts 324°
2026-05-06 13:38 32.61022 38.68463 36036 ft 484 kts 324°
2026-05-06 13:38 32.67035 38.64875 36027 ft 483 kts 324°
2026-05-06 13:39 32.73037 38.61281 36029 ft 483 kts 324°
2026-05-06 13:39 32.78998 38.57707 36029 ft 483 kts 324°
2026-05-06 13:40 32.84996 38.54107 36026 ft 482 kts 324°
2026-05-06 13:40 32.90988 38.50506 36031 ft 482 kts 324°
2026-05-06 13:41 32.95968 38.47509 36028 ft 482 kts 324°
2026-05-06 13:41 33.01964 38.43902 36032 ft 482 kts 324°
2026-05-06 13:42 33.07949 38.40284 36026 ft 482 kts 324°
2026-05-06 13:42 33.13932 38.36662 36024 ft 482 kts 324°
2026-05-06 13:43 33.19919 38.33046 36027 ft 482 kts 324°
2026-05-06 13:43 33.25899 38.29424 36030 ft 482 kts 324°
2026-05-06 13:44 33.31865 38.25778 36021 ft 481 kts 324°
2026-05-06 13:44 33.37826 38.22127 36019 ft 481 kts 324°
2026-05-06 13:45 33.43748 38.18501 36028 ft 481 kts 324°
2026-05-06 13:45 33.52711 38.13042 36028 ft 481 kts 324°
2026-05-06 13:46 33.58689 38.09414 36028 ft 481 kts 325°
2026-05-06 13:46 33.64665 38.05778 36030 ft 481 kts 325°
2026-05-06 13:47 33.70648 38.02131 36028 ft 481 kts 325°
2026-05-06 13:47 33.76587 37.98504 36019 ft 481 kts 325°
2026-05-06 13:48 33.82540 37.94810 36021 ft 478 kts 322°
2026-05-06 13:48 33.87698 37.90023 36022 ft 460 kts 306°
2026-05-06 13:49 33.91459 37.84012 36019 ft 450 kts 297°
2026-05-06 13:49 33.94808 37.77659 36020 ft 449 kts 296°
2026-05-06 13:50 33.98096 37.71263 36020 ft 449 kts 296°
2026-05-06 13:50 34.01398 37.64879 36021 ft 449 kts 296°
2026-05-06 13:51 34.04713 37.58503 36022 ft 449 kts 296°
2026-05-06 13:51 34.08036 37.52115 36019 ft 449 kts 296°
2026-05-06 13:52 34.11358 37.45719 36020 ft 449 kts 296°
2026-05-06 13:52 34.14654 37.39357 36019 ft 449 kts 297°
2026-05-06 13:53 34.17971 37.32944 36023 ft 449 kts 297°
2026-05-06 13:53 34.21422 37.26629 36022 ft 454 kts 303°
2026-05-06 13:54 34.25630 37.20944 36026 ft 457 kts 307°
2026-05-06 13:54 34.30028 37.15367 36034 ft 458 kts 308°
2026-05-06 13:55 34.34452 37.09803 36037 ft 458 kts 308°
2026-05-06 13:55 34.38861 37.04226 36039 ft 457 kts 308°
2026-05-06 13:56 34.43223 36.98682 36041 ft 457 kts 308°
2026-05-06 13:56 34.47611 36.93090 36044 ft 457 kts 308°
2026-05-06 13:57 34.51999 36.87489 36046 ft 457 kts 308°
2026-05-06 13:57 34.56379 36.81890 36056 ft 458 kts 308°
2026-05-06 13:58 34.60761 36.76280 36118 ft 457 kts 308°
2026-05-06 13:58 34.62945 36.73483 36417 ft 454 kts 308°
2026-05-06 13:58 34.65111 36.70706 36732 ft 452 kts 308°
2026-05-06 13:59 34.67246 36.67966 36977 ft 451 kts 308°
2026-05-06 13:59 34.69407 36.65189 37183 ft 451 kts 308°
2026-05-06 13:59 34.71569 36.62414 37373 ft 451 kts 309°
2026-05-06 13:59 34.73723 36.59642 37566 ft 451 kts 309°
2026-05-06 14:00 34.75881 36.56861 37745 ft 451 kts 309°
2026-05-06 14:00 34.78033 36.54083 37916 ft 451 kts 309°
2026-05-06 14:00 34.80184 36.51305 38053 ft 452 kts 309°
2026-05-06 14:00 34.82318 36.48545 38065 ft 455 kts 309°
2026-05-06 14:01 34.86677 36.42905 38068 ft 457 kts 309°
2026-05-06 14:01 34.91030 36.37273 38060 ft 456 kts 309°
2026-05-06 14:02 34.95381 36.31633 38066 ft 456 kts 309°
2026-05-06 14:02 34.99704 36.26017 38077 ft 456 kts 309°
2026-05-06 14:03 35.04043 36.20368 38074 ft 456 kts 309°
2026-05-06 14:03 35.08383 36.14710 38073 ft 457 kts 309°
2026-05-06 14:04 35.12726 36.09037 38072 ft 457 kts 309°
2026-05-06 14:04 35.16960 36.03253 38071 ft 454 kts 303°
2026-05-06 14:05 35.19995 35.96643 38071 ft 446 kts 288°
2026-05-06 14:05 35.21294 35.89288 38067 ft 442 kts 272°
2026-05-06 14:06 35.20808 35.81804 38061 ft 443 kts 261°
2026-05-06 14:06 35.20361 35.74300 38076 ft 443 kts 273°
2026-05-06 14:07 35.21597 35.66931 38065 ft 446 kts 289°
2026-05-06 14:07 35.24281 35.60055 38061 ft 449 kts 295°
2026-05-06 14:08 35.27228 35.53345 38064 ft 450 kts 295°
2026-05-06 14:08 35.30202 35.46601 38064 ft 450 kts 295°
2026-05-06 14:09 35.33144 35.39838 38064 ft 450 kts 295°
2026-05-06 14:09 35.36072 35.33048 38061 ft 450 kts 295°
2026-05-06 14:10 35.38988 35.26262 38061 ft 450 kts 295°
2026-05-06 14:10 35.41909 35.19456 38060 ft 451 kts 295°
2026-05-06 14:11 35.44831 35.12637 38062 ft 451 kts 295°
2026-05-06 14:11 35.47744 35.05822 38060 ft 451 kts 295°
2026-05-06 14:12 35.50656 34.98999 38062 ft 451 kts 295°
2026-05-06 14:12 35.53547 34.92209 38060 ft 452 kts 295°
2026-05-06 14:13 35.56457 34.85363 38060 ft 452 kts 295°
2026-05-06 14:13 35.59362 34.78511 38059 ft 452 kts 295°
2026-05-06 14:14 35.62265 34.71651 38060 ft 453 kts 295°
2026-05-06 14:14 35.65170 34.64774 38058 ft 453 kts 295°
2026-05-06 14:15 35.68053 34.57933 38055 ft 453 kts 295°
2026-05-06 14:15 35.70948 34.51049 38057 ft 453 kts 295°
2026-05-06 14:16 35.73845 34.44147 38054 ft 453 kts 295°
2026-05-06 14:16 35.76718 34.37287 38057 ft 453 kts 295°
2026-05-06 14:17 35.79601 34.30391 38053 ft 453 kts 295°
2026-05-06 14:17 35.82482 34.23484 38055 ft 453 kts 295°
2026-05-06 14:18 35.85358 34.16573 38054 ft 453 kts 295°
2026-05-06 14:18 35.88230 34.09660 38054 ft 453 kts 295°
2026-05-06 14:19 35.91086 34.02769 38050 ft 453 kts 295°
2026-05-06 14:19 35.93753 33.95737 38056 ft 452 kts 291°
2026-05-06 14:20 35.96019 33.88496 38053 ft 451 kts 290°
2026-05-06 14:20 35.98263 33.81299 38049 ft 452 kts 290°
2026-05-06 14:21 36.00584 33.74084 38050 ft 452 kts 291°
2026-05-06 14:21 36.02934 33.66876 38052 ft 452 kts 291°
2026-05-06 14:22 36.05282 33.59676 38052 ft 452 kts 291°
2026-05-06 14:22 36.07626 33.52463 38052 ft 452 kts 291°
2026-05-06 14:23 36.09959 33.45255 38051 ft 452 kts 291°
2026-05-06 14:23 36.12278 33.38071 38051 ft 452 kts 291°
2026-05-06 14:24 36.14604 33.30853 38053 ft 452 kts 291°
2026-05-06 14:24 36.16931 33.23616 38048 ft 452 kts 291°
2026-05-06 14:25 36.19252 33.16376 38044 ft 452 kts 291°
2026-05-06 14:25 36.21570 33.09127 38048 ft 452 kts 291°
2026-05-06 14:26 36.23881 33.01884 38050 ft 452 kts 291°
2026-05-06 14:26 36.26191 32.94630 38050 ft 452 kts 291°
2026-05-06 14:27 36.28479 32.87424 38057 ft 452 kts 291°
2026-05-06 14:27 36.30773 32.80183 38059 ft 451 kts 291°
2026-05-06 14:28 36.33062 32.72938 38058 ft 450 kts 291°
2026-05-06 14:28 36.35353 32.65688 38066 ft 450 kts 291°
2026-05-06 14:29 36.37646 32.58447 38070 ft 450 kts 291°
2026-05-06 14:29 36.39917 32.51254 38075 ft 450 kts 291°
2026-05-06 14:30 36.42193 32.44023 38075 ft 450 kts 291°
2026-05-06 14:30 36.44082 32.38008 38074 ft 449 kts 291°
2026-05-06 14:31 36.46350 32.30763 38076 ft 450 kts 291°
2026-05-06 14:31 36.48614 32.23520 38075 ft 450 kts 291°
2026-05-06 14:32 36.50872 32.16279 38076 ft 449 kts 291°
2026-05-06 14:32 36.53127 32.09027 38072 ft 449 kts 291°
2026-05-06 14:33 36.55372 32.01776 38072 ft 449 kts 291°
2026-05-06 14:33 36.57587 31.94556 38070 ft 449 kts 291°
2026-05-06 14:34 36.59812 31.87277 38069 ft 449 kts 291°
2026-05-06 14:34 36.62034 31.80002 38064 ft 449 kts 291°
2026-05-06 14:35 36.64249 31.72732 38067 ft 449 kts 291°
2026-05-06 14:35 36.66459 31.65463 38067 ft 449 kts 291°
2026-05-06 14:36 36.68651 31.58238 38065 ft 448 kts 291°
2026-05-06 14:36 36.70993 31.51043 38063 ft 448 kts 293°
2026-05-06 14:37 36.73420 31.43901 38062 ft 447 kts 294°
2026-05-06 14:37 36.75820 31.36740 38059 ft 447 kts 292°
2026-05-06 14:38 36.77945 31.29509 38058 ft 446 kts 290°
2026-05-06 14:38 36.79971 31.22184 38058 ft 446 kts 290°
2026-05-06 14:39 36.82019 31.14884 38054 ft 445 kts 290°
2026-05-06 14:39 36.84094 31.07594 38052 ft 445 kts 291°
2026-05-06 14:40 36.86171 31.00313 38051 ft 445 kts 291°
2026-05-06 14:40 36.88241 30.93037 38045 ft 444 kts 290°
2026-05-06 14:41 36.90306 30.85752 38048 ft 444 kts 290°
2026-05-06 14:41 36.92504 30.78554 38051 ft 443 kts 296°
2026-05-06 14:42 36.95135 30.71644 38047 ft 443 kts 296°
2026-05-06 14:42 36.97849 30.64737 38050 ft 443 kts 297°
2026-05-06 14:43 37.00574 30.57816 38048 ft 443 kts 297°
2026-05-06 14:43 37.03288 30.50885 38047 ft 443 kts 297°
2026-05-06 14:44 37.05996 30.43941 38056 ft 444 kts 297°
2026-05-06 14:45 37.10044 30.33531 38056 ft 445 kts 296°
2026-05-06 14:45 37.12752 30.26543 38060 ft 446 kts 296°
2026-05-06 14:46 37.15462 30.19537 38061 ft 446 kts 297°
2026-05-06 14:46 37.18169 30.12524 38068 ft 446 kts 297°
2026-05-06 14:47 37.20871 30.05509 38069 ft 447 kts 297°
2026-05-06 14:47 37.23570 29.98493 38074 ft 447 kts 297°
2026-05-06 14:48 37.26389 29.91540 38075 ft 446 kts 298°
2026-05-06 14:48 37.29261 29.84626 38078 ft 446 kts 298°
2026-05-06 14:49 37.32094 29.77748 38077 ft 446 kts 298°
2026-05-06 14:49 37.34926 29.70812 38080 ft 446 kts 298°
2026-05-06 14:50 37.37659 29.63812 38083 ft 446 kts 297°
2026-05-06 14:50 37.40333 29.56769 38085 ft 446 kts 297°
2026-05-06 14:51 37.43016 29.49731 38084 ft 445 kts 297°
2026-05-06 14:51 37.45705 29.42711 38091 ft 445 kts 297°
2026-05-06 14:52 37.48343 29.35710 38091 ft 445 kts 296°
2026-05-06 14:52 37.50937 29.28617 38093 ft 445 kts 296°
2026-05-06 14:53 37.53525 29.21532 38091 ft 444 kts 296°
2026-05-06 14:53 37.56115 29.14460 38092 ft 445 kts 296°
2026-05-06 14:54 37.58709 29.07380 38085 ft 444 kts 296°
2026-05-06 14:54 37.61273 29.00360 38080 ft 443 kts 296°
2026-05-06 14:55 37.63851 28.93286 38079 ft 443 kts 296°
2026-05-06 14:55 37.66419 28.86225 38078 ft 442 kts 296°
2026-05-06 14:56 37.68976 28.79176 38073 ft 441 kts 296°
2026-05-06 14:56 37.71527 28.72129 38068 ft 441 kts 296°
2026-05-06 14:57 37.74063 28.65077 38064 ft 441 kts 296°
2026-05-06 14:57 37.76568 28.57999 38061 ft 441 kts 296°
2026-05-06 14:58 37.79049 28.50968 38060 ft 440 kts 296°
2026-05-06 14:58 37.81547 28.43888 38056 ft 440 kts 296°
2026-05-06 14:59 37.84040 28.36815 38063 ft 440 kts 296°
2026-05-06 14:59 37.86529 28.29739 38055 ft 440 kts 296°
2026-05-06 15:00 37.89017 28.22644 38041 ft 440 kts 296°
2026-05-06 15:00 37.91499 28.15551 38033 ft 440 kts 296°
2026-05-06 15:01 37.93973 28.08462 38036 ft 440 kts 296°
2026-05-06 15:01 37.96441 28.01375 38030 ft 439 kts 296°
2026-05-06 15:02 37.98903 27.94292 38028 ft 439 kts 296°
2026-05-06 15:02 38.01383 27.87277 38029 ft 438 kts 298°
2026-05-06 15:03 38.04168 27.80416 38030 ft 437 kts 298°
2026-05-06 15:03 38.06730 27.73406 38034 ft 438 kts 296°
2026-05-06 15:04 38.09154 27.66318 38052 ft 438 kts 296°
2026-05-06 15:04 38.11586 27.59222 38051 ft 438 kts 296°
2026-05-06 15:05 38.14038 27.52136 38056 ft 438 kts 296°
2026-05-06 15:05 38.16496 27.45052 38055 ft 437 kts 296°
2026-05-06 15:06 38.18955 27.37971 38045 ft 437 kts 296°
2026-05-06 15:06 38.21396 27.30900 38048 ft 437 kts 296°
2026-05-06 15:07 38.23823 27.23852 38046 ft 437 kts 296°
2026-05-06 15:07 38.26262 27.16757 38046 ft 438 kts 296°
2026-05-06 15:08 38.28700 27.09650 38048 ft 438 kts 296°
2026-05-06 15:08 38.31400 27.02713 38049 ft 435 kts 304°
2026-05-06 15:09 38.35294 26.96857 38050 ft 434 kts 317°
2026-05-06 15:09 38.39804 26.91729 38045 ft 434 kts 319°
2026-05-06 15:10 38.44367 26.86741 38047 ft 435 kts 319°
2026-05-06 15:10 38.48957 26.81704 38049 ft 435 kts 319°
2026-05-06 15:11 38.53527 26.76647 38054 ft 435 kts 319°
2026-05-06 15:11 38.58095 26.71568 38055 ft 435 kts 319°
2026-05-06 15:12 38.62669 26.66472 38056 ft 435 kts 319°
2026-05-06 15:12 38.67203 26.61413 38056 ft 435 kts 319°
2026-05-06 15:13 38.71765 26.56315 38062 ft 435 kts 319°
2026-05-06 15:13 38.76332 26.51202 38061 ft 436 kts 319°
2026-05-06 15:14 38.80900 26.46075 38064 ft 436 kts 318°
2026-05-06 15:14 38.84908 26.40301 38070 ft 437 kts 307°
2026-05-06 15:15 38.88413 26.33910 38071 ft 438 kts 305°
2026-05-06 15:15 38.91829 26.27434 38067 ft 438 kts 305°
2026-05-06 15:16 38.95246 26.20934 38066 ft 438 kts 305°
2026-05-06 15:16 38.98644 26.14490 38070 ft 438 kts 305°
2026-05-06 15:17 39.02067 26.08004 38070 ft 438 kts 305°
2026-05-06 15:17 39.04934 26.02562 38069 ft 438 kts 305°
2026-05-06 15:18 39.08329 25.96105 38071 ft 438 kts 305°
2026-05-06 15:18 39.11747 25.89589 38071 ft 438 kts 305°
2026-05-06 15:19 39.15158 25.83074 38068 ft 439 kts 305°
2026-05-06 15:19 39.18568 25.76547 38071 ft 439 kts 305°
2026-05-06 15:20 39.21979 25.70006 38068 ft 439 kts 305°
2026-05-06 15:20 39.25385 25.63461 38069 ft 439 kts 304°
2026-05-06 15:21 39.28789 25.56905 38066 ft 440 kts 304°
2026-05-06 15:21 39.32174 25.50374 38067 ft 440 kts 304°
2026-05-06 15:22 39.35578 25.43792 38067 ft 440 kts 304°
2026-05-06 15:22 39.38975 25.37210 38067 ft 441 kts 304°
2026-05-06 15:23 39.42373 25.30612 38062 ft 441 kts 304°
2026-05-06 15:23 39.45771 25.24001 38062 ft 441 kts 304°
2026-05-06 15:24 39.49167 25.17380 38058 ft 441 kts 304°
2026-05-06 15:24 39.52560 25.10751 38058 ft 442 kts 304°
2026-05-06 15:25 39.55952 25.04110 38063 ft 442 kts 304°
2026-05-06 15:25 39.59341 24.97460 38061 ft 442 kts 304°
2026-05-06 15:26 39.62708 24.90841 38060 ft 442 kts 304°
2026-05-06 15:26 39.66096 24.84165 38057 ft 443 kts 304°
2026-05-06 15:27 39.69482 24.77481 38060 ft 443 kts 304°
2026-05-06 15:27 39.72869 24.70780 38053 ft 443 kts 304°
2026-05-06 15:28 39.76257 24.64063 38058 ft 444 kts 304°
2026-05-06 15:28 39.79636 24.57347 38050 ft 444 kts 303°
2026-05-06 15:29 39.83017 24.50616 38052 ft 444 kts 303°
2026-05-06 15:29 39.86376 24.43913 38051 ft 445 kts 303°
2026-05-06 15:30 39.89756 24.37154 38047 ft 445 kts 303°
2026-05-06 15:30 39.93133 24.30386 38055 ft 445 kts 303°
2026-05-06 15:31 39.96490 24.23645 38050 ft 445 kts 303°
2026-05-06 15:31 39.99863 24.16856 38048 ft 446 kts 303°
2026-05-06 15:32 40.04900 24.06690 38045 ft 446 kts 303°
2026-05-06 15:32 40.08269 23.99874 38044 ft 446 kts 303°
2026-05-06 15:33 40.11639 23.93039 38043 ft 447 kts 303°
2026-05-06 15:33 40.14988 23.86231 38041 ft 447 kts 303°
2026-05-06 15:34 40.18354 23.79375 38037 ft 447 kts 303°
2026-05-06 15:34 40.21690 23.72568 38037 ft 448 kts 303°
2026-05-06 15:35 40.25045 23.65703 38035 ft 448 kts 303°
2026-05-06 15:35 40.28411 23.58802 38030 ft 448 kts 303°
2026-05-06 15:36 40.31747 23.51948 38030 ft 449 kts 302°
2026-05-06 15:36 40.35109 23.45023 38031 ft 449 kts 302°
2026-05-06 15:37 40.38464 23.38098 38024 ft 449 kts 302°
2026-05-06 15:37 40.41797 23.31205 38024 ft 450 kts 302°
2026-05-06 15:38 40.45147 23.24259 38019 ft 450 kts 302°
2026-05-06 15:38 40.48497 23.17299 38019 ft 451 kts 302°
2026-05-06 15:39 40.51846 23.10325 38018 ft 451 kts 302°
2026-05-06 15:39 40.55178 23.03370 38022 ft 451 kts 302°
2026-05-06 15:40 40.58527 22.96364 38021 ft 452 kts 302°
2026-05-06 15:40 40.61881 22.89331 38018 ft 452 kts 302°
2026-05-06 15:41 40.65205 22.82345 38017 ft 453 kts 302°
2026-05-06 15:41 40.68544 22.75313 38014 ft 453 kts 301°
2026-05-06 15:42 40.71882 22.68268 38007 ft 453 kts 301°
2026-05-06 15:42 40.75216 22.61214 38007 ft 453 kts 301°
2026-05-06 15:43 40.78529 22.54186 38005 ft 453 kts 301°
2026-05-06 15:43 40.81859 22.47108 38004 ft 453 kts 301°
2026-05-06 15:44 40.85185 22.40022 38008 ft 453 kts 301°
2026-05-06 15:44 40.88501 22.32942 38008 ft 453 kts 301°
2026-05-06 15:45 40.91799 22.25883 38008 ft 453 kts 301°
2026-05-06 15:45 40.95104 22.18791 38010 ft 453 kts 301°
2026-05-06 15:46 40.98402 22.11699 38011 ft 452 kts 301°
2026-05-06 15:46 41.01700 22.04594 38014 ft 452 kts 301°
2026-05-06 15:47 41.04990 21.97486 38012 ft 452 kts 300°
2026-05-06 15:47 41.08275 21.90370 38012 ft 452 kts 300°
2026-05-06 15:48 41.11441 21.83215 38016 ft 452 kts 299°
2026-05-06 15:48 41.14559 21.75971 38014 ft 452 kts 298°
2026-05-06 15:49 41.17685 21.68727 38011 ft 452 kts 299°
2026-05-06 15:49 41.20825 21.61482 38012 ft 452 kts 299°
2026-05-06 15:50 41.23944 21.54285 38018 ft 452 kts 298°
2026-05-06 15:50 41.27079 21.47028 38019 ft 452 kts 298°
2026-05-06 15:51 41.30210 21.39760 38021 ft 452 kts 298°
2026-05-06 15:51 41.33333 21.32494 38020 ft 452 kts 298°
2026-05-06 15:52 41.36450 21.25224 38022 ft 452 kts 298°
2026-05-06 15:52 41.39546 21.17985 38032 ft 453 kts 298°
2026-05-06 15:53 41.42656 21.10698 38032 ft 452 kts 298°
2026-05-06 15:53 41.45763 21.03399 38037 ft 452 kts 298°
2026-05-06 15:54 41.48864 20.96098 38042 ft 452 kts 298°
2026-05-06 15:54 41.51964 20.88779 38047 ft 452 kts 297°
2026-05-06 15:55 41.55039 20.81503 38042 ft 452 kts 297°
2026-05-06 15:55 41.58123 20.74189 38054 ft 451 kts 297°
2026-05-06 15:56 41.61199 20.66870 38057 ft 452 kts 297°
2026-05-06 15:56 41.64278 20.59529 38061 ft 451 kts 297°
2026-05-06 15:57 41.67470 20.52361 38069 ft 453 kts 304°
2026-05-06 15:57 41.71208 20.45559 38070 ft 453 kts 304°
2026-05-06 15:58 41.75030 20.38821 38073 ft 453 kts 305°
2026-05-06 15:58 41.78851 20.32098 38069 ft 453 kts 304°
2026-05-06 15:59 41.82662 20.25361 38081 ft 453 kts 304°
2026-05-06 15:59 41.86435 20.18660 38072 ft 453 kts 304°
2026-05-06 16:00 41.90227 20.11909 38074 ft 453 kts 304°
2026-05-06 16:00 41.94021 20.05140 38080 ft 453 kts 304°
2026-05-06 16:01 41.97811 19.98364 38080 ft 453 kts 304°
2026-05-06 16:01 42.01602 19.91566 38079 ft 453 kts 304°
2026-05-06 16:02 42.05357 19.84818 38087 ft 453 kts 304°
2026-05-06 16:02 42.09136 19.78017 38092 ft 453 kts 304°
2026-05-06 16:03 42.12912 19.71205 38093 ft 453 kts 304°
2026-05-06 16:03 42.16689 19.64374 38091 ft 453 kts 304°
2026-05-06 16:04 42.20432 19.57590 38090 ft 453 kts 304°
2026-05-06 16:04 42.24194 19.50756 38084 ft 453 kts 304°
2026-05-06 16:05 42.27952 19.43913 38082 ft 453 kts 304°
2026-05-06 16:05 42.31710 19.37057 38075 ft 454 kts 304°
2026-05-06 16:06 42.34825 19.31361 38074 ft 454 kts 303°
2026-05-06 16:06 42.38572 19.24495 38079 ft 454 kts 303°
2026-05-06 16:07 42.42317 19.17615 38075 ft 454 kts 303°
2026-05-06 16:07 42.46059 19.10727 38078 ft 454 kts 303°
2026-05-06 16:08 42.49796 19.03831 38081 ft 454 kts 303°
2026-05-06 16:08 42.53507 18.96968 38077 ft 453 kts 303°
2026-05-06 16:09 42.57230 18.90068 38076 ft 453 kts 303°
2026-05-06 16:09 42.60953 18.83150 38072 ft 453 kts 303°
2026-05-06 16:10 42.64674 18.76221 38070 ft 453 kts 303°
2026-05-06 16:10 42.68385 18.69294 38071 ft 453 kts 303°
2026-05-06 16:11 42.72086 18.62368 38060 ft 453 kts 303°
2026-05-06 16:11 42.75768 18.55462 38056 ft 453 kts 303°
2026-05-06 16:12 42.79460 18.48524 38055 ft 453 kts 302°
2026-05-06 16:12 42.83145 18.41578 38052 ft 452 kts 302°
2026-05-06 16:13 42.86829 18.34623 38054 ft 453 kts 302°
2026-05-06 16:13 42.90516 18.27646 38054 ft 453 kts 302°
2026-05-06 16:14 42.94196 18.20664 38043 ft 453 kts 302°
2026-05-06 16:14 42.97854 18.13706 38052 ft 453 kts 302°
2026-05-06 16:15 43.01528 18.06704 38046 ft 453 kts 302°
2026-05-06 16:15 43.05201 17.99684 38048 ft 454 kts 302°
2026-05-06 16:16 43.08876 17.92646 38035 ft 454 kts 302°
2026-05-06 16:16 43.12544 17.85605 38035 ft 454 kts 302°
2026-05-06 16:17 43.16185 17.78600 38061 ft 454 kts 302°
2026-05-06 16:17 43.19844 17.71543 38043 ft 454 kts 302°
2026-05-06 16:18 43.23498 17.64477 38044 ft 454 kts 301°
2026-05-06 16:18 43.27146 17.57405 38042 ft 454 kts 301°
2026-05-06 16:19 43.30764 17.50377 38042 ft 453 kts 301°
2026-05-06 16:19 43.34403 17.43290 38036 ft 453 kts 301°
2026-05-06 16:20 43.38034 17.36202 38033 ft 452 kts 301°
2026-05-06 16:20 43.41653 17.29121 38032 ft 452 kts 301°
2026-05-06 16:21 43.45241 17.22083 38030 ft 452 kts 301°
2026-05-06 16:21 43.48850 17.14987 38030 ft 452 kts 301°
2026-05-06 16:22 43.52455 17.07878 38032 ft 452 kts 301°
2026-05-06 16:22 43.56052 17.00772 38028 ft 452 kts 301°
2026-05-06 16:23 43.59647 16.93654 38031 ft 452 kts 301°
2026-05-06 16:23 43.63238 16.86526 38027 ft 452 kts 301°
2026-05-06 16:24 43.66823 16.79392 38025 ft 452 kts 301°
2026-05-06 16:24 43.70381 16.72292 38028 ft 452 kts 301°
2026-05-06 16:25 43.73964 16.65126 38029 ft 453 kts 300°
2026-05-06 16:25 43.77539 16.57959 38024 ft 453 kts 300°
2026-05-06 16:26 43.81113 16.50777 38023 ft 453 kts 300°
2026-05-06 16:26 43.84688 16.43574 38020 ft 454 kts 300°
2026-05-06 16:27 43.88266 16.36349 38013 ft 455 kts 300°
2026-05-06 16:27 43.91845 16.29104 38011 ft 455 kts 300°
2026-05-06 16:28 43.95419 16.21851 38006 ft 455 kts 300°
2026-05-06 16:28 43.98990 16.14584 38001 ft 456 kts 300°
2026-05-06 16:29 44.02535 16.07354 38000 ft 456 kts 300°
2026-05-06 16:29 44.06109 16.00046 37999 ft 456 kts 300°
2026-05-06 16:30 44.09071 15.93975 37990 ft 457 kts 300°
2026-05-06 16:30 44.13239 15.85411 37991 ft 457 kts 300°
2026-05-06 16:31 44.16806 15.78059 37994 ft 457 kts 300°
2026-05-06 16:31 44.20371 15.70697 37993 ft 458 kts 300°
2026-05-06 16:32 44.23907 15.63376 37991 ft 458 kts 300°
2026-05-06 16:32 44.27457 15.56005 37990 ft 458 kts 300°
2026-05-06 16:33 44.31013 15.48606 37990 ft 458 kts 300°
2026-05-06 16:34 44.36335 15.37492 37986 ft 459 kts 300°
2026-05-06 16:34 44.39861 15.30108 37968 ft 459 kts 300°
2026-05-06 16:35 44.43403 15.22670 37980 ft 459 kts 300°
2026-05-06 16:35 44.46937 15.15229 37969 ft 459 kts 300°
2026-05-06 16:36 44.50469 15.07770 37969 ft 460 kts 300°
2026-05-06 16:36 44.54005 15.00287 37963 ft 460 kts 300°
2026-05-06 16:37 44.57535 14.92797 37965 ft 460 kts 300°
2026-05-06 16:37 44.61040 14.85343 37960 ft 461 kts 300°
2026-05-06 16:38 44.64569 14.77815 37955 ft 461 kts 300°
2026-05-06 16:38 44.68093 14.70278 37948 ft 462 kts 300°
2026-05-06 16:39 44.71843 14.62930 37950 ft 464 kts 305°
2026-05-06 16:39 44.75910 14.55844 37946 ft 465 kts 306°
2026-05-06 16:40 44.79985 14.48851 37946 ft 465 kts 306°
2026-05-06 16:40 44.84093 14.41792 37953 ft 465 kts 306°
2026-05-06 16:41 44.88190 14.34718 37944 ft 466 kts 306°
2026-05-06 16:41 44.92281 14.27626 37941 ft 466 kts 306°
2026-05-06 16:42 44.96372 14.20516 37946 ft 466 kts 306°
2026-05-06 16:42 45.00464 14.13389 37944 ft 467 kts 306°
2026-05-06 16:43 45.04553 14.06248 37944 ft 467 kts 306°
2026-05-06 16:43 45.08635 13.99101 37943 ft 467 kts 305°
2026-05-06 16:44 45.12686 13.91991 37945 ft 467 kts 305°
2026-05-06 16:44 45.16764 13.84815 37939 ft 467 kts 305°
2026-05-06 16:45 45.20843 13.77620 37928 ft 468 kts 305°
2026-05-06 16:45 45.24918 13.70412 37909 ft 468 kts 305°
2026-05-06 16:46 45.28994 13.63185 37900 ft 469 kts 305°
2026-05-06 16:46 45.33069 13.55942 37893 ft 469 kts 305°
2026-05-06 16:47 45.37139 13.48688 37890 ft 469 kts 305°
2026-05-06 16:47 45.41210 13.41414 37889 ft 470 kts 305°
2026-05-06 16:48 45.45274 13.34135 37888 ft 470 kts 305°
2026-05-06 16:48 45.49467 13.27057 37892 ft 473 kts 311°
2026-05-06 16:49 45.54155 13.20460 37885 ft 473 kts 312°
2026-05-06 16:49 45.58911 13.13943 37886 ft 473 kts 313°
2026-05-06 16:50 45.63670 13.07433 37883 ft 473 kts 312°
2026-05-06 16:50 45.68422 13.00898 37881 ft 474 kts 312°
2026-05-06 16:51 45.73164 12.94347 37886 ft 474 kts 312°
2026-05-06 16:51 45.77851 12.87855 37885 ft 474 kts 312°
2026-05-06 16:52 45.82610 12.81247 37885 ft 474 kts 312°
2026-05-06 16:52 45.87340 12.74663 37900 ft 474 kts 312°
2026-05-06 16:53 45.92077 12.68053 37906 ft 474 kts 312°
2026-05-06 16:53 45.96776 12.61480 37911 ft 474 kts 312°
2026-05-06 16:54 46.00728 12.55940 37908 ft 474 kts 312°
2026-05-06 16:54 46.05422 12.49343 37909 ft 474 kts 312°
2026-05-06 16:55 46.10166 12.42657 37900 ft 474 kts 311°
2026-05-06 16:55 46.14854 12.36037 37897 ft 474 kts 311°
2026-05-06 16:56 46.19564 12.29369 37891 ft 474 kts 311°
2026-05-06 16:56 46.24266 12.22694 37883 ft 474 kts 311°
2026-05-06 16:57 46.28968 12.16002 37875 ft 474 kts 311°
2026-05-06 16:57 46.33639 12.09337 37880 ft 475 kts 311°
2026-05-06 16:58 46.38354 12.02595 37881 ft 476 kts 311°
2026-05-06 16:58 46.43061 11.95843 37859 ft 475 kts 311°
2026-05-06 16:59 46.47755 11.89093 37861 ft 475 kts 311°
2026-05-06 16:59 46.52447 11.82329 37853 ft 475 kts 311°
2026-05-06 17:00 46.57116 11.75581 37847 ft 475 kts 311°
2026-05-06 17:00 46.61800 11.68793 37843 ft 475 kts 311°
2026-05-06 17:01 46.66483 11.61990 37846 ft 475 kts 310°
2026-05-06 17:01 46.71156 11.55182 37845 ft 475 kts 310°
2026-05-06 17:02 46.75800 11.48400 37844 ft 475 kts 310°
2026-05-06 17:02 46.80473 11.41560 37842 ft 476 kts 310°
2026-05-06 17:03 46.84359 11.35857 37842 ft 477 kts 310°
2026-05-06 17:03 46.87689 11.30963 37840 ft 477 kts 310°
2026-05-06 17:04 46.92363 11.24076 37824 ft 477 kts 310°
2026-05-06 17:04 46.97009 11.17130 37820 ft 477 kts 309°
2026-05-06 17:05 47.01491 11.09987 37814 ft 476 kts 308°
2026-05-06 17:05 47.05951 11.02790 37810 ft 477 kts 308°
2026-05-06 17:06 47.10401 10.95654 37819 ft 477 kts 308°
2026-05-06 17:06 47.14892 10.88470 37799 ft 478 kts 308°
2026-05-06 17:07 47.19402 10.81255 37815 ft 479 kts 308°
2026-05-06 17:07 47.23909 10.74020 37820 ft 481 kts 308°
2026-05-06 17:08 47.28433 10.66736 37823 ft 482 kts 307°
2026-05-06 17:08 47.32955 10.59433 37839 ft 483 kts 307°
2026-05-06 17:09 47.37481 10.52106 37846 ft 483 kts 308°
2026-05-06 17:09 47.42414 10.45288 37860 ft 489 kts 316°
2026-05-06 17:10 47.47756 10.39024 37863 ft 491 kts 317°
2026-05-06 17:10 47.53173 10.32818 37871 ft 492 kts 318°
2026-05-06 17:11 47.58549 10.26645 37872 ft 492 kts 317°
2026-05-06 17:11 47.63954 10.20397 37872 ft 493 kts 317°
2026-05-06 17:12 47.69350 10.14131 37867 ft 493 kts 317°
2026-05-06 17:12 47.74604 10.08011 37861 ft 494 kts 317°
2026-05-06 17:13 47.80006 10.01703 37855 ft 494 kts 318°
2026-05-06 17:13 47.85402 9.95386 37859 ft 494 kts 318°
2026-05-06 17:14 47.90810 9.89036 37855 ft 495 kts 318°
2026-05-06 17:14 47.96222 9.82666 37843 ft 496 kts 318°
2026-05-06 17:15 48.01600 9.76318 37839 ft 496 kts 318°
2026-05-06 17:15 48.07028 9.69892 37839 ft 497 kts 318°
2026-05-06 17:16 48.12154 9.63011 37839 ft 494 kts 313°
2026-05-06 17:16 48.17120 9.55868 37840 ft 495 kts 312°
2026-05-06 17:17 48.22057 9.48675 37846 ft 495 kts 312°
2026-05-06 17:17 48.26964 9.41513 37849 ft 495 kts 312°
2026-05-06 17:18 48.31909 9.34288 37840 ft 496 kts 312°
2026-05-06 17:18 48.36863 9.27036 37845 ft 496 kts 312°
2026-05-06 17:19 48.41806 9.19778 37844 ft 497 kts 312°
2026-05-06 17:19 48.46722 9.12540 37836 ft 497 kts 312°
2026-05-06 17:20 48.51669 9.05235 37837 ft 498 kts 312°
2026-05-06 17:20 48.56613 8.97914 37838 ft 497 kts 312°
2026-05-06 17:21 48.61544 8.90589 37834 ft 497 kts 312°
2026-05-06 17:21 48.66483 8.83232 37836 ft 497 kts 312°
2026-05-06 17:22 48.71408 8.75874 37837 ft 497 kts 312°
2026-05-06 17:22 48.73869 8.72190 37943 ft 497 kts 312°
2026-05-06 17:22 48.76331 8.68501 37835 ft 496 kts 312°
2026-05-06 17:23 48.81199 8.61188 37832 ft 495 kts 312°
2026-05-06 17:23 48.86093 8.53811 37829 ft 495 kts 311°
2026-05-06 17:24 48.90983 8.46419 37827 ft 495 kts 311°
2026-05-06 17:24 48.95864 8.39019 37826 ft 495 kts 311°
2026-05-06 17:25 49.00708 8.31654 37824 ft 495 kts 311°
2026-05-06 17:25 49.05571 8.24240 37820 ft 494 kts 311°
2026-05-06 17:26 49.10435 8.16801 37817 ft 494 kts 311°
2026-05-06 17:26 49.15285 8.09362 37816 ft 495 kts 311°
2026-05-06 17:27 49.20134 8.01903 37812 ft 495 kts 311°
2026-05-06 17:27 49.24985 7.94419 37807 ft 495 kts 311°
2026-05-06 17:28 49.29826 7.86929 37804 ft 495 kts 311°
2026-05-06 17:28 49.34664 7.79418 37801 ft 495 kts 311°
2026-05-06 17:29 49.39506 7.71882 37794 ft 495 kts 311°
2026-05-06 17:29 49.44341 7.64334 37796 ft 495 kts 311°
2026-05-06 17:30 49.49136 7.56826 37795 ft 495 kts 311°
2026-05-06 17:30 49.53968 7.49236 37796 ft 495 kts 311°
2026-05-06 17:31 49.58788 7.41643 37800 ft 495 kts 311°
2026-05-06 17:31 49.63592 7.34051 37809 ft 495 kts 311°
2026-05-06 17:32 49.68399 7.26432 37822 ft 494 kts 311°
2026-05-06 17:32 49.73189 7.18820 37804 ft 493 kts 311°
2026-05-06 17:33 49.77933 7.11257 37832 ft 493 kts 311°
2026-05-06 17:33 49.82699 7.03635 37837 ft 492 kts 311°
2026-05-06 17:34 49.87450 6.96014 37823 ft 491 kts 311°
2026-05-06 17:34 49.92199 6.88373 37837 ft 491 kts 311°
2026-05-06 17:35 49.96908 6.80773 37834 ft 491 kts 311°
2026-05-06 17:35 50.01641 6.73112 37838 ft 491 kts 311°
2026-05-06 17:36 50.08736 6.61584 37837 ft 491 kts 311°
2026-05-06 17:36 50.13442 6.53910 37832 ft 491 kts 311°
2026-05-06 17:37 50.18081 6.46096 37834 ft 490 kts 306°
2026-05-06 17:37 50.21910 6.37337 37847 ft 487 kts 300°
2026-05-06 17:38 50.25515 6.28370 37847 ft 487 kts 299°
2026-05-06 17:38 50.29083 6.19348 37863 ft 487 kts 299°
2026-05-06 17:39 50.32648 6.10329 37869 ft 487 kts 300°
2026-05-06 17:39 50.36194 6.01361 37874 ft 487 kts 300°
2026-05-06 17:40 50.39755 5.92333 37873 ft 486 kts 300°
2026-05-06 17:40 50.43311 5.83283 37878 ft 486 kts 300°
2026-05-06 17:41 50.46831 5.74295 37885 ft 486 kts 300°
2026-05-06 17:41 50.50369 5.65230 37885 ft 486 kts 299°
2026-05-06 17:42 50.53891 5.56139 37882 ft 486 kts 299°
2026-05-06 17:42 50.57350 5.46995 37885 ft 486 kts 298°
2026-05-06 17:43 50.60219 5.39367 37886 ft 486 kts 298°
2026-05-06 17:43 50.63664 5.30210 37884 ft 486 kts 298°
2026-05-06 17:44 50.67107 5.21042 37886 ft 486 kts 298°
2026-05-06 17:44 50.70550 5.11851 37887 ft 486 kts 298°
2026-05-06 17:45 50.73957 5.02719 37888 ft 486 kts 298°
2026-05-06 17:45 50.77381 4.93509 37894 ft 486 kts 298°
2026-05-06 17:46 50.80798 4.84287 37902 ft 486 kts 298°
2026-05-06 17:46 50.84206 4.75053 37904 ft 485 kts 298°
2026-05-06 17:47 50.87607 4.65805 37907 ft 485 kts 298°
2026-05-06 17:47 50.90971 4.56627 37912 ft 485 kts 298°
2026-05-06 17:48 50.94357 4.47353 37916 ft 485 kts 298°
2026-05-06 17:48 50.97729 4.38085 37913 ft 485 kts 298°
2026-05-06 17:49 51.01095 4.28800 37910 ft 484 kts 298°
2026-05-06 17:49 51.04451 4.19506 37910 ft 484 kts 298°
2026-05-06 17:50 51.07771 4.10280 37907 ft 484 kts 298°
2026-05-06 17:50 51.11114 4.00959 37904 ft 483 kts 298°
2026-05-06 17:51 51.14438 3.91655 37903 ft 483 kts 298°
2026-05-06 17:51 51.17752 3.82344 37900 ft 483 kts 298°
2026-05-06 17:52 51.21060 3.73018 37890 ft 482 kts 298°
2026-05-06 17:52 51.23807 3.63314 37906 ft 479 kts 285°
2026-05-06 17:53 51.25376 3.53057 37905 ft 478 kts 281°
2026-05-06 17:53 51.26739 3.42661 37916 ft 478 kts 281°
2026-05-06 17:54 51.28070 3.32265 37929 ft 477 kts 280°
2026-05-06 17:54 51.29383 3.21870 37930 ft 476 kts 280°
2026-05-06 17:55 51.30693 3.11507 37934 ft 476 kts 280°
2026-05-06 17:55 51.32003 3.01131 37938 ft 476 kts 280°
2026-05-06 17:56 51.33295 2.90832 37938 ft 476 kts 280°
2026-05-06 17:56 51.34590 2.80442 37940 ft 476 kts 280°
2026-05-06 17:57 51.35873 2.70070 37959 ft 475 kts 280°
2026-05-06 17:57 51.37153 2.59674 37957 ft 475 kts 280°
2026-05-06 17:58 51.38423 2.49289 37955 ft 475 kts 280°
2026-05-06 17:58 51.39684 2.38887 37952 ft 475 kts 280°
2026-05-06 17:59 51.40936 2.28488 37947 ft 476 kts 280°
2026-05-06 17:59 51.42188 2.18142 37956 ft 476 kts 280°
2026-05-06 18:00 51.43459 2.07730 37955 ft 475 kts 280°
2026-05-06 18:00 51.44724 1.97298 37958 ft 476 kts 280°
2026-05-06 18:01 51.45960 1.86866 37960 ft 475 kts 279°
2026-05-06 18:01 51.47163 1.76469 37957 ft 475 kts 279°
2026-05-06 18:02 51.48354 1.66045 37964 ft 475 kts 279°
2026-05-06 18:02 51.49548 1.55598 37971 ft 475 kts 279°
2026-05-06 18:03 51.50723 1.45208 37964 ft 475 kts 279°
2026-05-06 18:03 51.51786 1.35724 37962 ft 475 kts 279°
2026-05-06 18:04 51.52950 1.25264 37970 ft 476 kts 279°
2026-05-06 18:04 51.54104 1.14811 37973 ft 476 kts 279°
2026-05-06 18:05 51.55258 1.04353 37981 ft 476 kts 279°
2026-05-06 18:05 51.56393 0.93879 37993 ft 476 kts 279°
2026-05-06 18:06 51.57519 0.83399 37994 ft 475 kts 279°
2026-05-06 18:06 51.58632 0.72921 37993 ft 475 kts 279°
2026-05-06 18:07 51.59732 0.62502 37996 ft 475 kts 279°
2026-05-06 18:07 51.60828 0.52158 37990 ft 475 kts 279°
2026-05-06 18:08 51.61912 0.41675 37987 ft 475 kts 279°
2026-05-06 18:08 51.62985 0.31186 37987 ft 475 kts 279°
2026-05-06 18:09 51.64300 0.20780 37993 ft 475 kts 287°
2026-05-06 18:09 51.67269 0.11306 37992 ft 477 kts 306°
2026-05-06 18:10 51.71703 0.03327 38025 ft 478 kts 313°
2026-05-06 18:10 51.76386 -0.04316 38036 ft 478 kts 313°
2026-05-06 18:11 51.81074 -0.11937 38039 ft 478 kts 313°
2026-05-06 18:11 51.85704 -0.19565 37995 ft 478 kts 313°
2026-05-06 18:12 51.90345 -0.27276 37828 ft 477 kts 313°
2026-05-06 18:12 51.92654 -0.31125 37221 ft 476 kts 313°
2026-05-06 18:12 51.94960 -0.34973 36577 ft 475 kts 313°
2026-05-06 18:13 51.97255 -0.38812 35942 ft 474 kts 312°
2026-05-06 18:13 51.99551 -0.42656 35297 ft 474 kts 312°
2026-05-06 18:13 52.01842 -0.46496 34612 ft 475 kts 312°
2026-05-06 18:13 52.04146 -0.50365 33842 ft 476 kts 312°
2026-05-06 18:14 52.06451 -0.54243 33030 ft 476 kts 312°
2026-05-06 18:14 52.08743 -0.58103 32465 ft 472 kts 312°
2026-05-06 18:14 52.11013 -0.61932 31952 ft 467 kts 312°
2026-05-06 18:14 52.13257 -0.65723 31434 ft 463 kts 312°
2026-05-06 18:15 52.15480 -0.69484 30915 ft 459 kts 311°
2026-05-06 18:15 52.17666 -0.73189 30401 ft 456 kts 311°
2026-05-06 18:15 52.19854 -0.76902 29848 ft 453 kts 311°
2026-05-06 18:15 52.22021 -0.80589 29325 ft 448 kts 311°
2026-05-06 18:16 52.24245 -0.84129 28814 ft 445 kts 318°
2026-05-06 18:16 52.26739 -0.87103 28347 ft 442 kts 324°
2026-05-06 18:16 52.29307 -0.89828 27846 ft 438 kts 326°
2026-05-06 18:16 52.31889 -0.92446 27383 ft 434 kts 326°
2026-05-06 18:17 52.34465 -0.95000 26906 ft 431 kts 327°
2026-05-06 18:17 52.37018 -0.97513 26422 ft 427 kts 327°
2026-05-06 18:17 52.39559 -1.00019 25942 ft 424 kts 327°
2026-05-06 18:17 52.42073 -1.02512 25481 ft 421 kts 327°
2026-05-06 18:18 52.44541 -1.04971 24991 ft 418 kts 327°
2026-05-06 18:18 52.47016 -1.07448 24534 ft 415 kts 327°
2026-05-06 18:18 52.49475 -1.09916 24068 ft 413 kts 327°
2026-05-06 18:18 52.51915 -1.12369 23600 ft 410 kts 327°
2026-05-06 18:19 52.54341 -1.14813 23072 ft 406 kts 327°
2026-05-06 18:19 52.56741 -1.17231 22602 ft 403 kts 327°
2026-05-06 18:19 52.59115 -1.19624 22139 ft 399 kts 327°
2026-05-06 18:19 52.61471 -1.22005 21677 ft 395 kts 327°
2026-05-06 18:20 52.63802 -1.24366 21215 ft 392 kts 327°
2026-05-06 18:20 52.66113 -1.26708 20751 ft 389 kts 327°
2026-05-06 18:20 52.68373 -1.29000 20300 ft 386 kts 327°
2026-05-06 18:20 52.70698 -1.31361 20007 ft 386 kts 327°
2026-05-06 18:21 52.72960 -1.33661 19446 ft 387 kts 327°
2026-05-06 18:21 52.75248 -1.35994 18989 ft 386 kts 327°
2026-05-06 18:21 52.77520 -1.38312 18518 ft 382 kts 327°
2026-05-06 18:21 52.79777 -1.40617 18043 ft 379 kts 327°
2026-05-06 18:22 52.82013 -1.42904 17582 ft 376 kts 327°
2026-05-06 18:22 52.84231 -1.45175 17124 ft 374 kts 327°
2026-05-06 18:22 52.86435 -1.47435 16679 ft 372 kts 327°
2026-05-06 18:22 52.88627 -1.49685 16257 ft 369 kts 327°
2026-05-06 18:23 52.90781 -1.51898 15826 ft 367 kts 327°
2026-05-06 18:23 52.92944 -1.54123 15387 ft 364 kts 327°
2026-05-06 18:23 52.95091 -1.56335 14948 ft 362 kts 327°
2026-05-06 18:23 52.97220 -1.58530 14415 ft 361 kts 327°
2026-05-06 18:24 52.99371 -1.60752 13639 ft 366 kts 327°
2026-05-06 18:24 53.01542 -1.62996 12895 ft 368 kts 327°
2026-05-06 18:24 53.03688 -1.65216 11924 ft 357 kts 327°
2026-05-06 18:24 53.05667 -1.67661 11087 ft 354 kts 315°
2026-05-06 18:25 53.07315 -1.70640 10772 ft 345 kts 310°
2026-05-06 18:25 53.08845 -1.73608 10630 ft 331 kts 310°
2026-05-06 18:25 53.10289 -1.76422 10502 ft 318 kts 310°
2026-05-06 18:25 53.11699 -1.79163 10371 ft 306 kts 310°
2026-05-06 18:26 53.13055 -1.81802 10242 ft 294 kts 310°
2026-05-06 18:26 53.14359 -1.84344 10096 ft 284 kts 310°
2026-05-06 18:26 53.15636 -1.86833 9725 ft 282 kts 310°
2026-05-06 18:26 53.16905 -1.89306 9390 ft 278 kts 310°
2026-05-06 18:27 53.18153 -1.91740 9126 ft 273 kts 310°
2026-05-06 18:27 53.19365 -1.94108 8977 ft 263 kts 310°
2026-05-06 18:27 53.20533 -1.96392 8808 ft 254 kts 310°
2026-05-06 18:27 53.21669 -1.98616 8539 ft 251 kts 310°
2026-05-06 18:28 53.22801 -2.00830 8275 ft 250 kts 310°
2026-05-06 18:28 53.23922 -2.03024 8042 ft 248 kts 310°
2026-05-06 18:28 53.24956 -2.05321 8017 ft 248 kts 297°
2026-05-06 18:28 53.25337 -2.08107 8025 ft 248 kts 268°
2026-05-06 18:29 53.24880 -2.10885 8028 ft 250 kts 245°
2026-05-06 18:29 53.24027 -2.13432 8019 ft 253 kts 240°
2026-05-06 18:29 53.23101 -2.15960 8020 ft 257 kts 240°
2026-05-06 18:29 53.22178 -2.18452 8018 ft 254 kts 240°
2026-05-06 18:30 53.21247 -2.20962 7979 ft 253 kts 240°
2026-05-06 18:30 53.20327 -2.23438 7758 ft 251 kts 240°
2026-05-06 18:30 53.19404 -2.25915 7611 ft 252 kts 240°
2026-05-06 18:30 53.18790 -2.27565 7511 ft 252 kts 240°
2026-05-06 18:31 53.17866 -2.30041 7361 ft 251 kts 240°
2026-05-06 18:31 53.16946 -2.32512 7209 ft 250 kts 240°
2026-05-06 18:31 53.16027 -2.34977 7056 ft 250 kts 240°
2026-05-06 18:31 53.15113 -2.37432 6914 ft 249 kts 240°
2026-05-06 18:32 53.14200 -2.39884 6756 ft 249 kts 240°
2026-05-06 18:32 53.13288 -2.42334 6600 ft 248 kts 240°
2026-05-06 18:32 53.12382 -2.44769 6456 ft 247 kts 240°
2026-05-06 18:32 53.11478 -2.47199 6302 ft 247 kts 240°
2026-05-06 18:33 53.10575 -2.49627 6144 ft 246 kts 240°
2026-05-06 18:33 53.09707 -2.52076 5963 ft 245 kts 245°
2026-05-06 18:33 53.09382 -2.54814 5822 ft 241 kts 275°
2026-05-06 18:33 53.09915 -2.57412 5649 ft 239 kts 305°
2026-05-06 18:34 53.11086 -2.59363 5439 ft 240 kts 328°
2026-05-06 18:34 53.12648 -2.60329 5237 ft 241 kts 347°
2026-05-06 18:34 53.14297 -2.60866 5039 ft 242 kts 349°
2026-05-06 18:34 53.15941 -2.61350 4812 ft 237 kts 350°
2026-05-06 18:35 53.17546 -2.61452 4590 ft 229 kts 16°
2026-05-06 18:35 53.18928 -2.60263 4387 ft 221 kts 40°
2026-05-06 18:35 53.19969 -2.58415 4141 ft 217 kts 53°
2026-05-06 18:35 53.20870 -2.56443 3955 ft 210 kts 52°
2026-05-06 18:36 53.21764 -2.54575 3712 ft 202 kts 52°
2026-05-06 18:36 53.22629 -2.52811 3495 ft 190 kts 52°
2026-05-06 18:36 53.23431 -2.51183 3251 ft 177 kts 52°
2026-05-06 18:36 53.24184 -2.49651 3023 ft 164 kts 52°
2026-05-06 18:37 53.24871 -2.48243 2865 ft 150 kts 53°
2026-05-06 18:37 53.25519 -2.46901 2751 ft 154 kts 53°
2026-05-06 18:37 53.26261 -2.45362 3129 ft 181 kts 53°
2026-05-06 18:37 53.27098 -2.43627 3395 ft 203 kts 52°
2026-05-06 18:38 53.27988 -2.41692 3487 ft 214 kts 59°
2026-05-06 18:38 53.28380 -2.39338 3488 ft 212 kts 93°
2026-05-06 18:38 53.27983 -2.36985 3498 ft 211 kts 116°
2026-05-06 18:38 53.27282 -2.34826 3497 ft 213 kts 120°
2026-05-06 18:39 53.26264 -2.33059 3494 ft 214 kts 149°
2026-05-06 18:39 53.24833 -2.32413 3493 ft 215 kts 175°
2026-05-06 18:39 53.23333 -2.32378 3492 ft 216 kts 179°
2026-05-06 18:40 53.20616 -2.34376 3498 ft 220 kts 218°
2026-05-06 18:40 53.19513 -2.36105 3494 ft 222 kts 227°
2026-05-06 18:40 53.18520 -2.38074 3494 ft 222 kts 230°
2026-05-06 18:40 53.17554 -2.40082 3492 ft 222 kts 230°
2026-05-06 18:41 53.16590 -2.42092 3495 ft 222 kts 230°
2026-05-06 18:41 53.15627 -2.44100 3487 ft 222 kts 230°
2026-05-06 18:41 53.14660 -2.46109 3489 ft 222 kts 230°
2026-05-06 18:41 53.13692 -2.48114 3493 ft 222 kts 230°
2026-05-06 18:42 53.12724 -2.50110 3489 ft 222 kts 230°
2026-05-06 18:42 53.11755 -2.52105 3495 ft 222 kts 230°
2026-05-06 18:42 53.10800 -2.54124 3479 ft 222 kts 234°
2026-05-06 18:42 53.10298 -2.56524 3482 ft 223 kts 267°
2026-05-06 18:43 53.10643 -2.58999 3492 ft 221 kts 301°
2026-05-06 18:43 53.11625 -2.60872 3481 ft 213 kts 324°
2026-05-06 18:43 53.12968 -2.61844 3492 ft 210 kts 347°
2026-05-06 18:43 53.14396 -2.62376 3501 ft 210 kts 352°
2026-05-06 18:44 53.15839 -2.62570 3506 ft 208 kts 359°
2026-05-06 18:44 53.17285 -2.62475 3484 ft 210 kts 17°
2026-05-06 18:44 53.18513 -2.61241 3498 ft 206 kts 45°
2026-05-06 18:44 53.19448 -2.59437 3498 ft 206 kts 53°
2026-05-06 18:45 53.20334 -2.57561 3493 ft 206 kts 52°
2026-05-06 18:45 53.21219 -2.55726 3490 ft 206 kts 52°
2026-05-06 18:45 53.22134 -2.53850 3494 ft 206 kts 52°
2026-05-06 18:45 53.23039 -2.51999 3440 ft 204 kts 52°
2026-05-06 18:46 53.23917 -2.50202 3226 ft 198 kts 52°
2026-05-06 18:46 53.24778 -2.48428 2933 ft 194 kts 52°
2026-05-06 18:46 53.25602 -2.46730 2660 ft 186 kts 52°
2026-05-06 18:46 53.26391 -2.45105 2406 ft 174 kts 53°
2026-05-06 18:47 53.27131 -2.43579 2155 ft 162 kts 53°
2026-05-06 18:47 53.27818 -2.42164 1941 ft 151 kts 53°
2026-05-06 18:47 53.28456 -2.40848 1749 ft 141 kts 53°
2026-05-06 18:47 53.29070 -2.39580 1539 ft 140 kts 54°
2026-05-06 18:48 53.29683 -2.38312 1360 ft 140 kts 54°
2026-05-06 18:48 53.30298 -2.37045 1150 ft 140 kts 53°
2026-05-06 18:48 53.30908 -2.35785 957 ft 140 kts 53°
2026-05-06 18:48 53.31519 -2.34523 755 ft 140 kts 53°
2026-05-06 18:49 53.32132 -2.33267 581 ft 139 kts 52°
2026-05-06 18:49 53.32739 -2.32008 373 ft 137 kts 53°
2026-05-06 18:49 53.33338 -2.30777 229 ft 137 kts 53°
2026-05-06 18:49 53.33873 -2.29665 221 ft 97 kts 50°
2026-05-06 18:50 53.34175 -2.29046 226 ft 40 kts 51°
2026-05-06 18:50 53.34311 -2.28768 227 ft 28 kts 50°
2026-05-06 18:50 53.34461 -2.28573 230 ft 26 kts 26°
2026-05-06 18:50 53.34603 -2.28471 232 ft 21 kts 22°
2026-05-06 18:51 53.34716 -2.28380 233 ft 17 kts 39°
2026-05-06 18:51 53.34790 -2.28240 240 ft 13 kts 51°
2026-05-06 18:51 53.34849 -2.28119 238 ft 11 kts 51°
2026-05-06 18:51 53.34877 -2.28061 241 ft 0 kts 50°
2026-05-06 18:52 53.34892 -2.28030 236 ft 7 kts 52°
2026-05-06 18:52 53.34935 -2.27939 238 ft 11 kts 51°
2026-05-06 18:52 53.34985 -2.27834 239 ft 12 kts 50°
2026-05-06 18:52 53.35041 -2.27721 240 ft 13 kts 51°
2026-05-06 18:53 53.35099 -2.27602 242 ft 14 kts 52°
2026-05-06 18:53 53.35159 -2.27475 243 ft 14 kts 51°
2026-05-06 18:53 53.35224 -2.27341 245 ft 15 kts 51°
2026-05-06 18:53 53.35292 -2.27214 245 ft 14 kts 34°
2026-05-06 18:54 53.35384 -2.27219 247 ft 14 kts 335°
2026-05-06 18:54 53.35467 -2.27315 248 ft 15 kts 322°
2026-05-06 18:54 53.35548 -2.27423 247 ft 15 kts 321°
2026-05-06 18:54 53.35600 -2.27494 246 ft 0 kts 321°
2026-05-06 18:55 53.35609 -2.27505 246 ft 3 kts 321°
2026-05-06 18:55 53.35619 -2.27518 246 ft 2 kts 321°
2026-05-06 18:55 53.35639 -2.27546 246 ft 5 kts 321°
2026-05-06 18:55 53.35676 -2.27594 246 ft 8 kts 324°
2026-05-06 18:56 53.35735 -2.27642 246 ft 11 kts 338°
2026-05-06 18:56 53.35803 -2.27715 247 ft 13 kts 312°
2026-05-06 18:56 53.35867 -2.27825 246 ft 12 kts 323°
2026-05-06 18:56 53.35954 -2.27840 247 ft 14 kts
2026-05-06 18:57 53.36047 -2.27846 247 ft 14 kts 339°
2026-05-06 18:57 53.36119 -2.27944 247 ft 12 kts 316°
2026-05-06 18:57 53.36185 -2.28051 247 ft 11 kts 319°
2026-05-06 18:57 53.36261 -2.28074 248 ft 12 kts 13°
2026-05-06 18:58 53.36320 -2.28038 248 ft 10 kts 28°
2026-05-06 18:58 53.36376 -2.27965 249 ft 9 kts 42°
2026-05-06 18:58 53.36382 -2.27954 249 ft 2 kts 46°
2026-05-06 18:58 53.36392 -2.27928 249 ft 3 kts 61°
2026-05-06 18:59 53.36411 -2.27860 250 ft 10 kts 62°
2026-05-06 18:59 53.36455 -2.27778 251 ft 4 kts 44°
2026-05-06 18:59 53.36461 -2.27767 251 ft 0 kts 44°